| time (UTC) | temp F | wind direction | speed knots | gust knots | rain 1hr in | rain 24hr in | rain mn in | humidity % | barometer mb |
| 20260506112503 | 23 | 101 | 0.0 | 0.0 | 0.00 | 0.10 | 0.00 | 93 | 1015.9 |
| 20260506111503 | 23 | 84 | 0.0 | 0.0 | 0.00 | 0.10 | 0.00 | 93 | 1015.6 |
| 20260506111004 | 23 | 78 | 0.0 | 0.0 | 0.00 | 0.10 | 0.00 | 93 | 1015.6 |
| 20260506110504 | 23 | 46 | 0.0 | 0.0 | 0.00 | 0.10 | 0.00 | 93 | 1015.5 |
| 20260506110004 | 23 | 46 | 0.0 | 0.0 | 0.00 | 0.10 | 0.00 | 93 | 1015.3 |
| 20260506105504 | 23 | 46 | 0.0 | 0.0 | 0.00 | 0.10 | 0.00 | 93 | 1015.1 |
| 20260506105004 | 23 | 46 | 0.0 | 0.0 | 0.00 | 0.10 | 0.00 | 93 | 1014.9 |
| 20260506104004 | 24 | 46 | 0.0 | 0.0 | 0.00 | 0.10 | 0.00 | 93 | 1014.8 |
| 20260506103504 | 23 | 46 | 0.0 | 0.0 | 0.00 | 0.10 | 0.00 | 93 | 1014.8 |
| 20260506103004 | 24 | 46 | 0.0 | 0.0 | 0.00 | 0.10 | 0.00 | 93 | 1014.8 |
| 20260506102503 | 24 | 46 | 0.0 | 0.0 | 0.00 | 0.10 | 0.00 | 93 | 1014.6 |
| 20260506102004 | 24 | 46 | 0.0 | 0.0 | 0.00 | 0.10 | 0.00 | 93 | 1014.6 |
| 20260506101504 | 24 | 46 | 0.0 | 0.0 | 0.00 | 0.10 | 0.00 | 93 | 1014.7 |
| 20260506101004 | 24 | 46 | 0.0 | 0.0 | 0.00 | 0.10 | 0.00 | 93 | 1014.7 |
| 20260506100504 | 24 | 46 | 0.0 | 0.0 | 0.00 | 0.10 | 0.00 | 93 | 1014.9 |
| 20260506100004 | 23 | 46 | 0.0 | 0.0 | 0.00 | 0.10 | 0.00 | 93 | 1015.0 |
| 20260506095003 | 24 | 46 | 0.0 | 0.0 | 0.00 | 0.10 | 0.00 | 93 | 1014.7 |
| 20260506094503 | 24 | 46 | 0.0 | 0.0 | 0.00 | 0.10 | 0.00 | 93 | 1014.8 |
| 20260506094004 | 24 | 46 | 0.0 | 0.0 | 0.00 | 0.10 | 0.00 | 93 | 1014.9 |
| 20260506093504 | 24 | 46 | 0.0 | 0.0 | 0.00 | 0.10 | 0.00 | 93 | 1014.8 |
| 20260506093004 | 24 | 46 | 0.0 | 0.0 | 0.00 | 0.10 | 0.00 | 93 | 1014.9 |
| 20260506092503 | 24 | 46 | 0.0 | 0.0 | 0.00 | 0.10 | 0.00 | 93 | 1015.0 |
| 20260506092004 | 24 | 46 | 0.0 | 0.0 | 0.00 | 0.10 | 0.00 | 93 | 1014.9 |
| 20260506091504 | 24 | 46 | 0.0 | 0.0 | 0.00 | 0.10 | 0.00 | 93 | 1014.9 |
| 20260506091004 | 24 | 46 | 0.0 | 0.0 | 0.00 | 0.10 | 0.00 | 93 | 1014.8 |
| 20260506090503 | 24 | 46 | 0.0 | 0.0 | 0.00 | 0.11 | 0.00 | 93 | 1014.8 |
| 20260506090004 | 24 | 46 | 0.0 | 0.0 | 0.00 | 0.11 | 0.00 | 93 | 1014.9 |
| 20260506085504 | 24 | 46 | 0.0 | 0.0 | 0.00 | 0.11 | 0.00 | 93 | 1015.1 |
| 20260506085004 | 24 | 46 | 0.0 | 0.0 | 0.00 | 0.11 | 0.00 | 93 | 1015.1 |
| 20260506084504 | 24 | 46 | 0.0 | 0.0 | 0.00 | 0.11 | 0.00 | 93 | 1015.1 |
| 20260506083504 | 24 | 46 | 0.0 | 0.0 | 0.00 | 0.11 | 0.00 | 93 | 1015.0 |
| 20260506083004 | 24 | 46 | 0.0 | 0.0 | 0.00 | 0.11 | 0.00 | 93 | 1015.0 |
| 20260506082504 | 24 | 46 | 0.0 | 0.0 | 0.00 | 0.11 | 0.00 | 93 | 1015.1 |
| 20260506082003 | 24 | 46 | 0.0 | 0.0 | 0.00 | 0.11 | 0.00 | 93 | 1015.2 |
| 20260506081503 | 24 | 46 | 0.0 | 0.0 | 0.00 | 0.11 | 0.00 | 93 | 1015.2 |
| 20260506080504 | 24 | 86 | 0.0 | 0.0 | 0.00 | 0.12 | 0.00 | 93 | 1015.3 |
| 20260506073504 | 24 | 78 | 0.0 | 0.0 | 0.00 | 0.12 | 0.00 | 93 | 1014.7 |
| 20260506073004 | 24 | 100 | 0.0 | 0.0 | 0.00 | 0.13 | 0.00 | 93 | 1014.7 |
| 20260506072504 | 25 | 107 | 0.0 | 0.0 | 0.00 | 0.14 | 0.00 | 93 | 1014.8 |
| 20260506072004 | 25 | 80 | 0.0 | 0.0 | 0.00 | 0.15 | 0.00 | 93 | 1014.8 |
| 20260506071504 | 25 | 86 | 0.0 | 0.0 | 0.00 | 0.16 | 0.00 | 93 | 1015.1 |
| 20260506071004 | 25 | 91 | 0.0 | 0.0 | 0.00 | 0.16 | 0.00 | 93 | 1015.1 |
| 20260506062503 | 25 | 66 | 0.0 | 0.0 | 0.00 | 0.16 | 0.00 | 94 | 1014.6 |
| 20260506061504 | 25 | 67 | 0.0 | 0.0 | 0.00 | 0.16 | 0.00 | 94 | 1014.2 |
| 20260506061004 | 25 | 67 | 0.0 | 0.0 | 0.00 | 0.16 | 0.00 | 94 | 1014.2 |
| 20260506060504 | 25 | 67 | 0.0 | 0.0 | 0.00 | 0.16 | 0.00 | 94 | 1014.5 |
| 20260506051004 | 25 | 67 | 0.0 | 0.0 | 0.00 | 0.16 | 0.16 | 93 | 1013.3 |
| 20260506050504 | 25 | 67 | 0.0 | 0.0 | 0.00 | 0.16 | 0.16 | 93 | 1013.3 |
| 20260506045004 | 25 | 78 | 0.0 | 0.0 | 0.00 | 0.16 | 0.16 | 93 | 1013.2 |
| 20260506044504 | 25 | 56 | 0.0 | 0.0 | 0.00 | 0.16 | 0.16 | 93 | 1013.2 |
| 20260506044004 | 25 | 59 | 0.0 | 0.0 | 0.00 | 0.16 | 0.16 | 93 | 1013.3 |
| 20260506043503 | 25 | 57 | 0.0 | 0.0 | 0.00 | 0.16 | 0.16 | 93 | 1013.3 |
| 20260506043004 | 25 | 56 | 0.0 | 0.0 | 0.00 | 0.16 | 0.16 | 93 | 1013.2 |
| 20260506042503 | 25 | 47 | 0.0 | 0.0 | 0.00 | 0.16 | 0.16 | 93 | 1013.3 |
| 20260506042004 | 25 | 46 | 0.0 | 0.0 | 0.00 | 0.16 | 0.16 | 93 | 1013.2 |
| 20260506041504 | 25 | 35 | 0.0 | 0.0 | 0.00 | 0.16 | 0.16 | 93 | 1013.3 |
| 20260506041004 | 25 | 59 | 0.0 | 0.0 | 0.00 | 0.16 | 0.16 | 93 | 1013.1 |
| 20260506040504 | 25 | 59 | 0.0 | 0.0 | 0.00 | 0.16 | 0.16 | 93 | 1013.1 |
| 20260506035504 | 25 | 50 | 0.0 | 0.0 | 0.00 | 0.16 | 0.16 | 93 | 1012.9 |
| 20260506035004 | 25 | 57 | 0.0 | 0.0 | 0.00 | 0.16 | 0.16 | 93 | 1012.3 |
| 20260506034504 | 25 | 57 | 0.0 | 0.0 | 0.00 | 0.16 | 0.16 | 93 | 1012.3 |
| 20260506034004 | 25 | 53 | 0.0 | 0.0 | 0.00 | 0.16 | 0.16 | 93 | 1012.1 |
| 20260506033504 | 25 | 61 | 0.0 | 0.0 | 0.00 | 0.16 | 0.16 | 93 | 1012.1 |
| 20260506033005 | 25 | 73 | 0.0 | 0.0 | 0.00 | 0.16 | 0.16 | 93 | 1012.2 |
| 20260506032504 | 25 | 78 | 0.0 | 0.0 | 0.00 | 0.16 | 0.16 | 93 | 1012.1 |
| 20260506032004 | 25 | 73 | 0.0 | 0.0 | 0.00 | 0.16 | 0.16 | 93 | 1012.1 |
| 20260506031504 | 25 | 94 | 0.0 | 0.0 | 0.00 | 0.16 | 0.16 | 93 | 1012.0 |
| 20260506031004 | 25 | 72 | 0.0 | 0.0 | 0.00 | 0.16 | 0.16 | 93 | 1012.0 |
| 20260506030504 | 25 | 76 | 0.0 | 0.0 | 0.00 | 0.16 | 0.16 | 93 | 1012.0 |
| 20260506030004 | 25 | 70 | 0.0 | 0.0 | 0.00 | 0.16 | 0.16 | 93 | 1011.9 |
| 20260506025504 | 25 | 80 | 0.0 | 0.0 | 0.00 | 0.16 | 0.16 | 93 | 1011.7 |
| 20260506025004 | 25 | 71 | 0.0 | 0.0 | 0.00 | 0.16 | 0.16 | 93 | 1011.2 |
| 20260506024504 | 25 | 66 | 0.0 | 0.0 | 0.00 | 0.16 | 0.16 | 93 | 1011.1 |
| 20260506024004 | 25 | 97 | 0.0 | 0.0 | 0.00 | 0.16 | 0.16 | 92 | 1011.0 |
| 20260506023504 | 25 | 83 | 0.0 | 0.0 | 0.00 | 0.16 | 0.16 | 92 | 1010.8 |
| 20260506023004 | 26 | 42 | 0.0 | 0.0 | 0.00 | 0.16 | 0.16 | 92 | 1010.8 |
| 20260506022503 | 26 | 42 | 0.0 | 0.0 | 0.00 | 0.16 | 0.16 | 92 | 1010.7 |
| 20260506022004 | 26 | 42 | 0.0 | 0.0 | 0.00 | 0.16 | 0.16 | 93 | 1010.6 |
| 20260506021503 | 26 | 59 | 0.0 | 0.0 | 0.00 | 0.16 | 0.16 | 93 | 1010.4 |
| 20260506021003 | 26 | 59 | 0.0 | 0.0 | 0.00 | 0.16 | 0.16 | 93 | 1010.2 |
| 20260506020503 | 26 | 59 | 0.0 | 0.0 | 0.00 | 0.16 | 0.16 | 92 | 1010.2 |
| 20260506020004 | 26 | 59 | 0.0 | 0.0 | 0.00 | 0.16 | 0.16 | 92 | 1010.2 |
| 20260506014504 | 26 | 59 | 0.0 | 0.0 | 0.00 | 0.17 | 0.16 | 92 | 1010.1 |
| 20260506014004 | 26 | 44 | 0.0 | 0.0 | 0.00 | 0.18 | 0.16 | 93 | 1010.0 |
| 20260506013504 | 26 | 44 | 0.0 | 0.0 | 0.00 | 0.19 | 0.16 | 92 | 1009.8 |
| 20260506013004 | 26 | 30 | 0.0 | 0.0 | 0.00 | 0.19 | 0.16 | 93 | 1009.9 |
| 20260506012503 | 26 | 71 | 0.0 | 0.0 | 0.00 | 0.19 | 0.16 | 93 | 1009.9 |
| 20260506012004 | 26 | 73 | 0.0 | 0.0 | 0.00 | 0.19 | 0.16 | 93 | 1009.6 |
| 20260506011503 | 26 | 73 | 0.0 | 0.0 | 0.00 | 0.20 | 0.16 | 93 | 1009.5 |
| 20260506010503 | 26 | 97 | 0.0 | 0.0 | 0.00 | 0.20 | 0.16 | 93 | 1009.4 |
| 20260506010003 | 26 | 47 | 0.0 | 0.0 | 0.00 | 0.21 | 0.16 | 93 | 1009.4 |
| 20260506005504 | 25 | 82 | 0.0 | 0.0 | 0.00 | 0.22 | 0.16 | 93 | 1009.3 |
| 20260506005004 | 25 | 101 | 0.0 | 0.0 | 0.00 | 0.23 | 0.16 | 92 | 1008.9 |
| 20260506004504 | 26 | 102 | 0.0 | 0.0 | 0.00 | 0.24 | 0.16 | 92 | 1008.9 |
| 20260506004003 | 26 | 96 | 0.0 | 0.0 | 0.00 | 0.26 | 0.16 | 92 | 1008.9 |
| 20260506003504 | 26 | 94 | 0.0 | 0.0 | 0.00 | 0.27 | 0.16 | 92 | 1009.0 |
| 20260506003004 | 26 | 79 | 0.0 | 0.0 | 0.01 | 0.28 | 0.16 | 92 | 1009.0 |
| 20260506002504 | 26 | 90 | 0.0 | 0.0 | 0.01 | 0.30 | 0.16 | 92 | 1009.0 |
| 20260506002004 | 26 | 100 | 0.0 | 0.0 | 0.01 | 0.31 | 0.16 | 92 | 1008.8 |
| 20260506001504 | 26 | 74 | 0.0 | 0.0 | 0.01 | 0.32 | 0.16 | 92 | 1008.8 |
| 20260506000004 | 26 | 52 | 0.0 | 0.0 | 0.01 | 0.38 | 0.16 | 92 | 1008.7 |
| 20260505235503 | 26 | 69 | 0.0 | 0.0 | 0.01 | 0.38 | 0.16 | 93 | 1008.8 |
| 20260505235004 | 26 | 84 | 0.0 | 0.0 | 0.01 | 0.40 | 0.16 | 93 | 1008.7 |
| 20260505234004 | 26 | 73 | 0.0 | 0.0 | 0.01 | 0.50 | 0.16 | 93 | 1008.6 |
| 20260505233504 | 26 | 92 | 0.0 | 0.0 | 0.01 | 0.52 | 0.16 | 93 | 1008.6 |
| 20260505233004 | 26 | 91 | 0.0 | 0.0 | 0.00 | 0.51 | 0.15 | 93 | 1008.6 |
| 20260505232503 | 26 | 92 | 0.0 | 0.0 | 0.00 | 0.51 | 0.15 | 93 | 1008.5 |
| 20260505232004 | 26 | 94 | 0.0 | 0.0 | 0.00 | 0.51 | 0.15 | 93 | 1008.4 |
| 20260505231504 | 26 | 109 | 0.0 | 0.0 | 0.00 | 0.51 | 0.15 | 93 | 1008.7 |
| 20260505231003 | 26 | 96 | 0.0 | 0.0 | 0.00 | 0.51 | 0.15 | 93 | 1008.8 |
| 20260505230004 | 26 | 112 | 0.0 | 0.0 | 0.00 | 0.51 | 0.15 | 92 | 1008.8 |
| 20260505225004 | 26 | 105 | 0.0 | 0.0 | 0.00 | 0.51 | 0.15 | 92 | 1008.2 |
| 20260505224504 | 26 | 103 | 0.0 | 0.0 | 0.01 | 0.51 | 0.15 | 92 | 1008.2 |
| 20260505224004 | 26 | 99 | 0.0 | 0.0 | 0.01 | 0.51 | 0.15 | 92 | 1008.2 |
| 20260505223504 | 26 | 97 | 0.0 | 0.0 | 0.01 | 0.51 | 0.15 | 91 | 1008.2 |
| 20260505223004 | 26 | 104 | 0.0 | 0.0 | 0.01 | 0.51 | 0.15 | 92 | 1008.2 |
| 20260505222504 | 27 | 102 | 0.0 | 0.0 | 0.01 | 0.51 | 0.15 | 92 | 1008.2 |
| 20260505222004 | 27 | 84 | 0.0 | 0.0 | 0.01 | 0.51 | 0.15 | 92 | 1008.2 |
| 20260505221503 | 27 | 48 | 0.0 | 0.0 | 0.01 | 0.51 | 0.15 | 92 | 1008.1 |
| 20260505221004 | 27 | 47 | 0.0 | 0.0 | 0.01 | 0.51 | 0.15 | 91 | 1007.7 |
| 20260505220503 | 27 | 42 | 0.0 | 0.0 | 0.01 | 0.51 | 0.15 | 91 | 1007.7 |
| 20260505220003 | 27 | 50 | 0.0 | 0.0 | 0.02 | 0.51 | 0.15 | 91 | 1007.5 |
| 20260505214504 | 28 | 79 | 0.0 | 0.0 | 0.01 | 0.50 | 0.14 | 89 | 1006.9 |
| 20260505214003 | 29 | 79 | 0.0 | 0.0 | 0.01 | 0.50 | 0.14 | 89 | 1006.7 |
| 20260505213504 | 30 | 102 | 0.0 | 0.0 | 0.01 | 0.50 | 0.14 | 89 | 1006.6 |
| 20260505213004 | 30 | 79 | 0.0 | 0.0 | 0.01 | 0.50 | 0.14 | 88 | 1006.2 |
| 20260505212504 | 31 | 110 | 0.0 | 0.0 | 0.01 | 0.50 | 0.14 | 88 | 1006.2 |
| 20260505212004 | 32 | 107 | 0.0 | 0.9 | 0.01 | 0.50 | 0.14 | 90 | 1006.0 |
| 20260505211503 | 33 | 51 | 0.0 | 0.9 | 0.02 | 0.50 | 0.14 | 92 | 1006.0 |
| 20260505211004 | 32 | 75 | 0.0 | 0.0 | 0.02 | 0.50 | 0.14 | 92 | 1006.1 |
| 20260505210504 | 32 | 75 | 0.0 | 0.9 | 0.02 | 0.50 | 0.14 | 93 | 1006.1 |
| 20260505210004 | 32 | 118 | 0.0 | 0.0 | 0.01 | 0.49 | 0.13 | 93 | 1006.2 |
| 20260505205504 | 31 | 118 | 0.0 | 0.0 | 0.01 | 0.49 | 0.13 | 93 | 1006.1 |
| 20260505205004 | 31 | 119 | 0.0 | 0.0 | 0.01 | 0.50 | 0.13 | 92 | 1006.2 |
| 20260505204003 | 31 | 119 | 0.0 | 0.0 | 0.01 | 0.50 | 0.13 | 92 | 1006.5 |
| 20260505203503 | 31 | 119 | 0.0 | 0.0 | 0.01 | 0.50 | 0.13 | 93 | 1006.4 |
| 20260505203004 | 30 | 119 | 0.0 | 0.0 | 0.02 | 0.50 | 0.13 | 93 | 1006.6 |
| 20260505201504 | 30 | 109 | 0.0 | 0.0 | 0.01 | 0.49 | 0.12 | 92 | 1007.0 |
| 20260505200004 | 30 | 147 | 0.0 | 0.0 | 0.01 | 0.49 | 0.12 | 92 | 1007.1 |
| 20260505195504 | 30 | 147 | 0.0 | 0.0 | 0.02 | 0.49 | 0.12 | 91 | 1007.3 |
| 20260505195004 | 30 | 147 | 0.0 | 0.0 | 0.02 | 0.49 | 0.12 | 91 | 1007.0 |
| 20260505194004 | 31 | 119 | 0.0 | 0.0 | 0.02 | 0.49 | 0.12 | 91 | 1006.9 |
| 20260505193504 | 31 | 118 | 0.0 | 0.0 | 0.02 | 0.49 | 0.12 | 91 | 1006.8 |
| 20260505192503 | 32 | 59 | 0.0 | 0.0 | 0.01 | 0.48 | 0.11 | 93 | 1006.9 |
| 20260505192003 | 32 | 341 | 0.0 | 0.0 | 0.02 | 0.48 | 0.11 | 93 | 1007.0 |
| 20260505191503 | 32 | 341 | 0.0 | 0.0 | 0.02 | 0.48 | 0.11 | 93 | 1007.0 |
| 20260505191004 | 32 | 341 | 0.0 | 0.0 | 0.02 | 0.48 | 0.11 | 93 | 1007.0 |
| 20260505190504 | 31 | 341 | 0.0 | 0.0 | 0.02 | 0.48 | 0.11 | 93 | 1007.1 |
| 20260505190004 | 31 | 341 | 0.0 | 0.0 | 0.02 | 0.48 | 0.11 | 93 | 1007.1 |
| 20260505185504 | 31 | 341 | 1.7 | 2.6 | 0.02 | 0.47 | 0.10 | 93 | 1007.0 |
| 20260505185004 | 31 | 300 | 0.9 | 2.6 | 0.02 | 0.47 | 0.10 | 94 | 1006.5 |
| 20260505184004 | 30 | 154 | 0.0 | 0.0 | 0.02 | 0.47 | 0.10 | 93 | 1006.6 |
| 20260505183504 | 30 | 154 | 0.0 | 2.6 | 0.02 | 0.47 | 0.10 | 92 | 1006.6 |
| 20260505183004 | 30 | 154 | 1.7 | 2.6 | 0.02 | 0.47 | 0.10 | 92 | 1006.6 |
| 20260505182503 | 30 | 168 | 2.6 | 5.2 | 0.02 | 0.47 | 0.10 | 91 | 1006.6 |
| 20260505182004 | 31 | 134 | 0.9 | 2.6 | 0.01 | 0.46 | 0.09 | 91 | 1006.5 |
| 20260505180504 | 31 | 126 | 2.6 | 5.2 | 0.02 | 0.46 | 0.09 | 92 | 1006.5 |
| 20260505180004 | 31 | 121 | 2.6 | 6.1 | 0.02 | 0.46 | 0.09 | 91 | 1006.5 |
| 20260505175504 | 32 | 113 | 2.6 | 5.2 | 0.01 | 0.45 | 0.08 | 92 | 1006.3 |
| 20260505175004 | 32 | 112 | 2.6 | 5.2 | 0.01 | 0.45 | 0.08 | 93 | 1006.1 |
| 20260505174504 | 32 | 352 | 0.0 | 0.0 | 0.01 | 0.45 | 0.08 | 94 | 1006.5 |
| 20260505174003 | 32 | 352 | 0.0 | 0.0 | 0.02 | 0.45 | 0.08 | 94 | 1006.5 |
| 20260505173503 | 32 | 352 | 0.0 | 0.0 | 0.02 | 0.45 | 0.08 | 94 | 1006.5 |
| 20260505173003 | 31 | 352 | 0.9 | 2.6 | 0.02 | 0.45 | 0.08 | 93 | 1006.4 |
| 20260505172504 | 31 | 352 | 0.9 | 2.6 | 0.02 | 0.45 | 0.08 | 93 | 1006.4 |
| 20260505172004 | 31 | 55 | 0.0 | 0.0 | 0.02 | 0.45 | 0.08 | 93 | 1006.4 |
| 20260505171504 | 31 | 86 | 0.0 | 0.0 | 0.01 | 0.44 | 0.07 | 93 | 1006.5 |
| 20260505171004 | 31 | 86 | 0.0 | 1.7 | 0.01 | 0.44 | 0.07 | 94 | 1006.5 |
| 20260505170504 | 31 | 96 | 0.9 | 2.6 | 0.01 | 0.44 | 0.07 | 93 | 1006.5 |
| 20260505170004 | 31 | 107 | 0.9 | 1.7 | 0.01 | 0.44 | 0.07 | 93 | 1006.4 |
| 20260505165503 | 31 | 107 | 0.0 | 0.0 | 0.01 | 0.44 | 0.07 | 92 | 1006.4 |
| 20260505165004 | 31 | 107 | 0.9 | 2.6 | 0.01 | 0.44 | 0.07 | 91 | 1006.7 |
| 20260505164504 | 32 | 60 | 0.0 | 0.0 | 0.01 | 0.44 | 0.07 | 92 | 1006.7 |
| 20260505164003 | 33 | 48 | 0.0 | 0.0 | 0.00 | 0.43 | 0.06 | 94 | 1006.3 |
| 20260505163503 | 32 | 48 | 0.0 | 2.6 | 0.00 | 0.43 | 0.06 | 95 | 1006.1 |
| 20260505163004 | 32 | 48 | 0.0 | 2.6 | 0.00 | 0.43 | 0.06 | 94 | 1006.1 |
| 20260505162504 | 32 | 48 | 0.0 | 1.7 | 0.00 | 0.43 | 0.06 | 94 | 1006.1 |
| 20260505162003 | 32 | 26 | 0.9 | 1.7 | 0.00 | 0.43 | 0.06 | 94 | 1006.1 |
| 20260505161504 | 31 | 46 | 1.7 | 2.6 | 0.00 | 0.43 | 0.06 | 94 | 1006.1 |
| 20260505161004 | 31 | 36 | 1.7 | 2.6 | 0.00 | 0.43 | 0.06 | 94 | 1006.2 |
| 20260505160504 | 31 | 44 | 1.7 | 2.6 | 0.00 | 0.43 | 0.06 | 94 | 1006.4 |
| 20260505153004 | 31 | 54 | 0.9 | 1.7 | 0.00 | 0.43 | 0.06 | 94 | 1006.1 |
| 20260505152504 | 31 | 44 | 0.9 | 1.7 | 0.00 | 0.43 | 0.06 | 95 | 1006.1 |
| 20260505152003 | 31 | 57 | 1.7 | 2.6 | 0.00 | 0.43 | 0.06 | 94 | 1006.1 |
| 20260505151504 | 31 | 108 | 1.7 | 2.6 | 0.00 | 0.43 | 0.06 | 95 | 1005.9 |
| 20260505150503 | 32 | 50 | 0.0 | 2.6 | 0.00 | 0.43 | 0.06 | 95 | 1005.9 |
| 20260505140503 | 30 | 36 | 1.7 | 2.6 | 0.00 | 0.43 | 0.06 | 95 | 1005.9 |
| 20260505125004 | 29 | 81 | 3.5 | 5.2 | 0.00 | 0.43 | 0.06 | 95 | 1005.0 |
| 20260505124504 | 29 | 69 | 2.6 | 5.2 | 0.00 | 0.43 | 0.06 | 95 | 1005.0 |
| 20260505124004 | 29 | 59 | 1.7 | 5.2 | 0.00 | 0.43 | 0.06 | 94 | 1005.0 |
| 20260505123504 | 29 | 82 | 2.6 | 6.1 | 0.00 | 0.43 | 0.06 | 95 | 1004.9 |
| 20260505123004 | 29 | 72 | 1.7 | 5.2 | 0.00 | 0.43 | 0.06 | 95 | 1005.0 |
| 20260505122503 | 29 | 77 | 3.5 | 4.3 | 0.00 | 0.43 | 0.06 | 94 | 1005.0 |
| 20260505122004 | 29 | 80 | 3.5 | 7.0 | 0.00 | 0.43 | 0.06 | 94 | 1004.9 |
| 20260505121503 | 29 | 81 | 3.5 | 6.1 | 0.00 | 0.43 | 0.06 | 94 | 1004.7 |
| 20260505121004 | 30 | 74 | 2.6 | 8.7 | 0.00 | 0.43 | 0.06 | 94 | 1004.6 |
| 20260505120504 | 30 | 61 | 4.3 | 5.2 | 0.00 | 0.43 | 0.06 | 94 | 1004.7 |
| 20260505120004 | 30 | 52 | 4.3 | 8.7 | 0.00 | 0.43 | 0.06 | 94 | 1004.6 |
| 20260505115504 | 30 | 50 | 4.3 | 7.8 | 0.00 | 0.43 | 0.06 | 94 | 1004.5 |
| 20260505115004 | 30 | 63 | 5.2 | 8.7 | 0.00 | 0.43 | 0.06 | 94 | 1004.8 |
| 20260505114504 | 30 | 54 | 4.3 | 10.4 | 0.00 | 0.43 | 0.06 | 94 | 1004.7 |
| 20260505113504 | 30 | 48 | 4.3 | 7.8 | 0.00 | 0.43 | 0.06 | 94 | 1004.5 |
| 20260505113004 | 31 | 68 | 5.2 | 10.4 | 0.00 | 0.43 | 0.06 | 94 | 1004.2 |